Change the Weather History Date:

Wednesday, August 14, 2013

  Actual Average Record
Temperature  
Mean Temperature 60 °F 74 °F  
Max Temperature 72 °F 84 °F 92 °F (1965)
Min Temperature 48 °F 63 °F 40 °F (1964)
Degree Days  
Heating Degree Days 5 0  
Month to date heating degree days 7 0  
Since 1 June heating degree days 34 23  
Since 1 July heating degree days 16 1  
Cooling Degree Days 0 9  
Month to date cooling degree days 77 126  
Year to date cooling degree days 580 717  
Since 1 June cooling degree days 479 640  
Growing Degree Days 8 (Base 50)    
Moisture  
Dew Point 49 °F    
Average Humidity 74    
Maximum Humidity 100    
Minimum Humidity 47    
Precipitation  
Precipitation 0.00 in 0.11 in 1.08 in (1952)
Month to date precipitation 1.73 1.49  
Year to date precipitation 27.27 23.58  
Sea Level Pressure  
Sea Level Pressure 30.18 in    
Wind  
Wind Speed 5 mph (NNE)    
Max Wind Speed 17 mph    
Max Gust Speed 21 mph    
Visibility 10 miles    
Events      
T = Trace of Precipitation, MM = Missing Value Source: NWS Daily Summary

Daily Weather History Graph

Daily Weather History Graph

Search for Another Location

Airport or City:

Trip Planner

Search our weather history database for the weather conditions in past years. The results will help you decide how hot, cold, wet, or windy it might be!

Date:

Astronomy

Aug. 14, 2013 Rise Set
Actual Time 6:57 AM EDT 8:46 PM EDT
Civil Twilight 6:28 AM EDT 9:15 PM EDT
Nautical Twilight 5:52 AM EDT 9:50 PM EDT
Astronomical Twilight 5:14 AM EDT 10:28 PM EDT
Moon 2:58 PM EDT (8/14) 12:20 AM EDT (8/14)
Length of Visible Light 14h 46m
Length of Day
13h 48m
First Quarter, 52% of the Moon is Illuminated
Aug 14
First Quarter
Aug 20
Full
Aug 28
Last Quarter
Sep 5
New
Sep 12
First Quarter

Hourly Weather History & Observations

Time (EDT) Temp. Dew Point Humidity Pressure Visibility Wind Dir Wind Speed Gust Speed Precip Events Conditions
12:54 AM 53.1 °F 48.0 °F 83% 30.14 in 10.0 mi NNW 3.5 mph - N/A   Clear
1:54 AM 54.0 °F 48.0 °F 80% 30.14 in 10.0 mi North 6.9 mph - N/A   Clear
2:54 AM 54.0 °F 48.0 °F 80% 30.14 in 10.0 mi North 5.8 mph - N/A   Clear
3:54 AM 54.0 °F 48.0 °F 80% 30.13 in 10.0 mi North 5.8 mph - N/A   Clear
4:54 AM 53.1 °F 48.0 °F 83% 30.15 in 10.0 mi North 3.5 mph - N/A   Clear
5:54 AM 51.1 °F 46.9 °F 86% 30.16 in 10.0 mi North 3.5 mph - N/A   Clear
6:54 AM 48.9 °F 48.0 °F 97% 30.19 in 10.0 mi Calm Calm - N/A   Clear
7:54 AM 53.1 °F 48.0 °F 83% 30.20 in 10.0 mi Calm Calm - N/A   Clear
8:54 AM 57.9 °F 46.9 °F 67% 30.21 in 10.0 mi NE 5.8 mph - N/A   Partly Cloudy
9:54 AM 60.1 °F 46.0 °F 60% 30.22 in 10.0 mi NE 6.9 mph - N/A   Clear
10:54 AM 62.1 °F 46.0 °F 56% 30.22 in 10.0 mi Variable 4.6 mph - N/A   Clear
11:54 AM 64.9 °F 48.9 °F 56% 30.22 in 10.0 mi NNE 5.8 mph - N/A   Clear
12:54 PM 66.9 °F 48.0 °F 51% 30.21 in 10.0 mi NNE 9.2 mph 16.1 mph N/A   Partly Cloudy
1:54 PM 68.0 °F 48.0 °F 49% 30.20 in 10.0 mi NNE 12.7 mph 18.4 mph N/A   Scattered Clouds
2:54 PM 69.1 °F 48.9 °F 49% 30.19 in 10.0 mi NNE 6.9 mph - N/A   Mostly Cloudy
3:54 PM 66.9 °F 48.9 °F 52% 30.19 in 10.0 mi NNE 6.9 mph - N/A   Overcast
4:54 PM 69.1 °F 48.9 °F 49% 30.18 in 10.0 mi North 6.9 mph - N/A   Mostly Cloudy
5:54 PM 66.9 °F 48.9 °F 52% 30.17 in 10.0 mi NNE 5.8 mph - N/A   Overcast
6:54 PM 66.9 °F 48.0 °F 51% 30.16 in 10.0 mi North 3.5 mph - N/A   Mostly Cloudy
7:54 PM 63.0 °F 52.0 °F 67% 30.16 in 10.0 mi North 3.5 mph - N/A   Clear
8:54 PM 60.1 °F 55.0 °F 83% 30.17 in 10.0 mi Calm Calm - N/A   Overcast
9:54 PM 60.1 °F 52.0 °F 75% 30.17 in 10.0 mi NE 3.5 mph - N/A   Mostly Cloudy
10:54 PM 55.0 °F 51.1 °F 86% 30.18 in 10.0 mi Calm Calm - N/A   Clear
11:54 PM 55.9 °F 51.1 °F 84% 30.18 in 10.0 mi Calm Calm - N/A   Clear